Flag for Norway Weather past 2 weeks in Lørenskog, Norway

Now
67 °F

Mild.


Feels Like: 67 °F
Forecast: 56 / 73 °F
Wind: 2 mph from Northeast

Location: Oslo-Blindern

Current Time: Jul 29, 2014 at 7:48:34 AM

Latest Report: Jul 29, 2014 at 7:00 AM


Visibility: N/A

Pressure: 29.85 "Hg

Humidity: 75%

Dew point: 59 °F

Location of LørenskogLocation

Historic Weather in Lørenskog — Graph

°F

Lørenskog temperature yesterday

Maximum temperature yesterday: 82 °F (at 4:00 PM)
Minimum temperature yesterday: 60 °F (at 3:00 AM)
Average temperature yesterday: 70 °F

Past Weeks' High & Low Weather Summary

 TemperatureHumidityPressure
High90 °F (Jul 24, 2:00 PM)97% (Jul 16, 2:00 AM)30.31 "Hg (Jul 16, 2:00 AM)
Low52 °F (Jul 18, 5:00 AM)23% (Jul 23, 6:00 PM)29.67 "Hg (Jul 14, 6:00 AM)
Average71 °F64%30.03 "Hg
* Reported Jul 14 6:00 AM — Jul 29 6:00 AM, Lørenskog, Weather by CustomWeather, © 2014

Note: Actual official high and low records may vary slightly from our data, if they occured in-between our weather recording intervals... More about our weather records

Advertising

Lørenskog weather history for previous 24 hours

 ConditionsComfort  
Time TempWeatherWind HumidityBarometerVisibility
6:00 AM
Jul 29
65 °FMild.3 mph78%29.86 "HgN/A
5:00 AM64 °FScattered clouds.3 mph78%29.87 "Hg47 mi
4:00 AM65 °FMild.3 mph76%29.88 "HgN/A
3:00 AM65 °FMild.3 mph74%29.88 "HgN/A
2:00 AM67 °FPassing clouds.2 mph76%29.88 "Hg47 mi
1:00 AM68 °FMild.2 mph76%29.87 "HgN/A
12:00 AM70 °FMild.1 mph73%29.88 "HgN/A
11:00 PM
Jul 28
71 °FSprinkles. Passing clouds.1 mph77%29.88 "Hg43 mi
10:00 PM72 °FMild.2 mph70%29.87 "HgN/A
9:00 PM73 °FMild.3 mph63%29.87 "HgN/A
8:00 PM74 °FThunderstorms. Scattered clouds.3 mph66%29.86 "Hg47 mi
7:00 PM76 °FMild.3 mph63%29.85 "HgN/A
6:00 PM78 °FWarm.5 mph57%29.85 "HgN/A
5:00 PM80 °FScattered clouds.3 mph52%29.86 "Hg43 mi
4:00 PM82 °FWarm.2 mph48%29.87 "HgN/A
3:00 PM80 °FWarm.2 mph54%29.88 "HgN/A
2:00 PM79 °FScattered clouds.3 mph55%29.90 "Hg34 mi
1:00 PM78 °FWarm.3 mph60%29.91 "HgN/A
12:00 PM75 °FMild.3 mph64%29.92 "HgN/A
11:00 AM75 °FScattered clouds.2 mph68%29.93 "Hg34 mi
10:00 AM72 °FMild.2 mph70%29.93 "HgN/A
9:00 AM68 °FMild.1 mph80%29.94 "HgN/A
8:00 AM65 °FLow clouds.No wind85%29.94 "Hg34 mi
7:00 AM63 °FMild.1 mph87%29.94 "HgN/A
Weather by CustomWeather, © 2014

See weather overviewHow to use our weather pages